Date String (YYYY-MM-DD hh:mm:ss) UTC,Instrument flags,Ambient pressure (hPa),Sample flow (lpm),Bypass flow (lpm),Sample temperature (°C),Ambient temperature (°C),ASC tube jacket temperature (°C),LED temperature (°C),Box temperature (°C),Sample RH (%),Span deviation,Mass concentration (μg/m³),Mass concentration (μg/m³),Mass concentration (μg/m³)
DateTimeUTC,F1_M11,P_M11,Q1_M11,Q2_M11,T1_M11,T2_M11,T3_M11,T4_M11,T5_M11,U1_M11,ZSPAN_M11,X0_M11,X2_M11,X1_M11
2022-11-02 08:00:00,,0819.0,5.00,0.00,28.4,27.0,00.0,37.3,30.2,07.7,0000.0,0003.22,0002.18,0001.85
2022-11-02 08:01:00,,0819.0,5.00,0.00,28.5,27.0,00.0,37.3,30.2,07.7,0000.0,0003.41,0002.22,0001.85
2022-11-02 08:02:00,,0819.0,4.99,0.00,28.5,27.0,00.0,37.3,30.2,07.7,0000.0,0003.31,0002.20,0001.85
2022-11-02 08:03:00,,0818.9,5.00,0.00,28.5,27.0,00.0,37.3,30.2,07.7,0000.0,0003.14,0002.16,0001.85
2022-11-02 08:04:00,,0818.9,5.01,0.00,28.5,27.0,00.0,37.3,30.2,07.8,0000.0,0003.09,0002.13,0001.83
2022-11-02 08:05:00,,0818.9,5.00,0.00,28.5,27.0,00.0,37.3,30.2,07.8,0000.0,0003.00,0002.11,0001.82
2022-11-02 08:06:00,,0818.9,4.99,0.00,28.5,27.0,00.0,37.3,30.2,07.8,0000.0,0003.05,0002.12,0001.81
2022-11-02 08:07:00,,0818.9,4.99,0.00,28.5,27.0,00.0,37.3,30.2,07.8,0000.0,0003.04,0002.12,0001.81
2022-11-02 08:08:00,,0818.9,5.01,0.00,28.5,27.0,00.0,37.3,30.2,07.8,0000.0,0003.26,0002.11,0001.82
2022-11-02 08:09:00,,0819.0,5.01,0.00,28.5,26.9,00.0,37.3,30.2,07.8,0000.0,0003.60,0002.13,0001.82
2022-11-02 08:10:00,,0819.0,5.00,0.00,28.5,26.9,00.0,37.3,30.2,07.8,0000.0,0003.67,0002.13,0001.82
2022-11-02 08:11:00,,0819.0,5.00,0.00,28.5,26.9,00.0,37.3,30.2,07.8,0000.0,0003.78,0002.18,0001.82
2022-11-02 08:12:00,,0819.0,5.00,0.00,28.5,26.9,00.0,37.3,30.2,07.8,0000.0,0004.56,0002.20,0001.82
2022-11-02 08:13:00,,0819.0,5.00,0.00,28.5,26.9,00.0,37.3,30.2,07.8,0000.0,0006.66,0002.22,0001.83
2022-11-02 08:14:00,,0818.9,4.99,0.00,28.5,26.9,00.0,37.3,30.2,07.9,0000.0,0006.68,0002.24,0001.84
2022-11-02 08:15:00,,0818.9,4.99,0.00,28.5,26.9,00.0,37.3,30.2,07.9,0000.0,0006.78,0002.25,0001.86
2022-11-02 08:16:00,,0818.9,5.02,0.00,28.5,26.9,00.0,37.3,30.2,07.8,0000.0,0006.87,0002.27,0001.88
2022-11-02 08:17:00,,0818.9,4.99,0.00,28.5,26.9,00.0,37.3,30.2,07.9,0000.0,0006.93,0002.30,0001.90
2022-11-02 08:18:00,,0819.0,4.99,0.00,28.5,26.9,00.0,37.3,30.2,07.9,0000.0,0007.20,0002.35,0001.91
2022-11-02 08:19:00,,0819.0,5.01,0.00,28.4,26.9,00.0,37.3,30.2,08.0,0000.0,0007.82,0002.37,0001.93
2022-11-02 08:20:00,,0819.0,5.00,0.00,28.4,26.9,00.0,37.3,30.2,07.9,0000.0,0007.50,0002.35,0001.94
2022-11-02 08:21:00,,0819.0,4.99,0.00,28.5,26.9,00.0,37.3,30.2,07.9,0000.0,0007.50,0002.38,0001.95
2022-11-02 08:22:00,,0818.9,5.00,0.00,28.4,26.9,00.0,37.3,30.2,07.9,0000.0,0007.44,0002.35,0001.96
2022-11-02 08:23:00,,0818.9,5.00,0.00,28.4,26.9,00.0,37.3,30.2,07.9,0000.0,0006.77,0002.31,0001.98
2022-11-02 08:24:00,,0818.9,5.01,0.00,28.4,26.8,00.0,37.3,30.2,07.9,0000.0,0004.54,0002.30,0002.00
2022-11-02 08:25:00,,0818.9,5.00,0.00,28.4,26.8,00.0,37.3,30.2,08.0,0000.0,0004.75,0002.35,0002.00
2022-11-02 08:26:00,,0818.9,4.99,0.00,28.4,26.8,00.0,37.3,30.2,07.9,0000.0,0006.08,0002.38,0002.00
2022-11-02 08:27:00,,0818.9,4.99,0.00,28.4,26.8,00.0,37.3,30.2,07.9,0000.0,0006.02,0002.38,0002.00
2022-11-02 08:28:00,,0818.9,5.00,0.00,28.4,26.8,00.0,37.3,30.2,08.0,0000.0,0005.99,0002.37,0002.00
2022-11-02 08:29:00,,0818.9,5.01,0.00,28.4,26.8,00.0,37.3,30.2,07.9,0000.0,0006.10,0002.28,0001.99
2022-11-02 08:30:00,,0818.9,5.00,0.00,28.4,26.8,00.0,37.3,30.1,08.0,0000.0,0005.16,0002.28,0001.97
2022-11-02 08:31:00,,0818.9,5.00,0.00,28.4,26.8,00.0,37.3,30.2,08.0,0000.0,0005.15,0002.28,0001.97
2022-11-02 08:32:00,,0818.9,4.99,0.00,28.4,26.8,00.0,37.3,30.1,08.0,0000.0,0005.14,0002.27,0001.98
2022-11-02 08:33:00,,0818.9,5.01,0.00,28.4,26.8,00.0,37.2,30.1,08.0,0000.0,0005.20,0002.27,0001.97
2022-11-02 08:34:00,,0818.9,5.00,0.00,28.4,26.8,00.0,37.2,30.1,08.0,0000.0,0005.28,0002.29,0001.97
2022-11-02 08:35:00,,0818.8,5.00,0.00,28.4,26.7,00.0,37.2,30.1,08.0,0000.0,0005.24,0002.28,0001.96
2022-11-02 08:36:00,,0818.8,5.00,0.00,28.3,26.7,00.0,37.2,30.1,08.0,0000.0,0004.92,0002.25,0001.96
2022-11-02 08:37:00,,0818.7,5.00,0.00,28.3,26.7,00.0,37.2,30.1,08.0,0000.0,0003.60,0002.21,0001.95
2022-11-02 08:38:00,,0818.7,5.00,0.00,28.3,26.7,00.0,37.2,30.1,07.9,0000.0,0003.52,0002.18,0001.94
2022-11-02 08:39:00,,0818.7,5.00,0.00,28.3,26.7,00.0,37.2,30.0,08.0,0000.0,0003.44,0002.16,0001.93
2022-11-02 08:40:00,,0818.8,5.00,0.00,28.3,26.6,00.0,37.2,30.0,08.0,0000.0,0002.90,0002.20,0001.95
2022-11-02 08:41:00,,0818.7,5.00,0.00,28.3,26.6,00.0,37.2,30.1,08.0,0000.0,0003.26,0002.19,0001.96
2022-11-02 08:42:00,,0818.7,5.01,0.00,28.3,26.6,00.0,37.2,30.1,08.0,0000.0,0003.93,0002.20,0001.96
2022-11-02 08:43:00,,0818.7,5.00,0.00,28.3,26.6,00.0,37.2,30.1,07.9,0000.0,0003.92,0002.19,0001.94
2022-11-02 08:44:00,,0818.7,5.00,0.00,28.3,26.6,00.0,37.2,30.0,08.0,0000.0,0003.92,0002.19,0001.94
2022-11-02 08:45:00,,0818.7,5.00,0.00,28.3,26.6,00.0,37.1,30.0,08.0,0000.0,0003.93,0002.19,0001.94
2022-11-02 08:46:00,,0818.7,4.99,0.00,28.3,26.6,00.0,37.1,30.0,08.0,0000.0,0003.99,0002.20,0001.93
2022-11-02 08:47:00,,0818.6,5.00,0.00,28.3,26.6,00.0,37.1,30.0,08.0,0000.0,0004.29,0002.22,0001.92
2022-11-02 08:48:00,,0818.6,5.01,0.00,28.2,26.6,00.0,37.1,30.0,08.0,0000.0,0004.42,0002.25,0001.91
2022-11-02 08:49:00,,0818.6,4.99,0.00,28.2,26.6,00.0,37.1,30.0,08.0,0000.0,0004.56,0002.30,0001.91
2022-11-02 08:50:00,,0818.6,5.01,0.00,28.2,26.6,00.0,37.1,30.0,08.1,0000.0,0004.54,0002.30,0001.90
2022-11-02 08:51:00,,0818.6,5.00,0.00,28.2,26.5,00.0,37.1,30.0,08.0,0000.0,0004.43,0002.28,0001.88
2022-11-02 08:52:00,,0818.6,5.00,0.00,28.2,26.5,00.0,37.1,29.9,08.0,0000.0,0004.20,0002.29,0001.88
2022-11-02 08:53:00,,0818.6,5.01,0.00,28.2,26.5,00.0,37.1,30.0,08.0,0000.0,0003.52,0002.29,0001.87
2022-11-02 08:54:00,,0818.6,4.98,0.00,28.2,26.5,00.0,37.1,29.9,08.0,0000.0,0003.55,0002.33,0001.86
2022-11-02 08:55:00,,0818.5,5.02,0.00,28.2,26.5,00.0,37.1,29.9,08.0,0000.0,0003.59,0002.35,0001.84
2022-11-02 08:56:00,,0818.5,4.99,0.00,28.2,26.5,00.0,37.1,29.9,08.0,0000.0,0003.71,0002.35,0001.84
2022-11-02 08:57:00,,0818.5,4.99,0.00,28.2,26.5,00.0,37.0,29.9,08.1,0000.0,0004.41,0002.33,0001.84
2022-11-02 08:58:00,,0818.5,5.00,0.00,28.1,26.5,00.0,37.0,29.9,08.1,0000.0,0004.29,0002.28,0001.84
2022-11-02 08:59:00,,0818.5,5.01,0.00,28.1,26.5,00.0,37.0,29.9,08.0,0000.0,0004.22,0002.25,0001.84
